, TX

(GMT )
Ingleside

Weather History for KTFP - October, 2011

Change the Weather History Date:

Thursday, October 20, 2011

  Actual Average Record
Temperature  
Mean Temperature 66 °F -  
Max Temperature 82 °F - - ()
Min Temperature 50 °F - - ()
Cooling Degree Days 1    
Growing Degree Days 16 (Base 50)    
Moisture  
Dew Point 49 °F    
Average Humidity 51    
Maximum Humidity 73    
Minimum Humidity 28    
Precipitation  
Precipitation 0.00 in - - ()
Sea Level Pressure  
Sea Level Pressure 30.07 in    
Wind  
Wind Speed 5 mph (SE)    
Max Wind Speed 16 mph    
Max Gust Speed 23 mph    
Visibility 10 miles    
Events      
Averages and records for this station are not official NWS values.
T = Trace of Precipitation, MM = Missing Value Source: NWS Daily Summary

Daily Weather History Graph

Daily Weather History Graph

Search for Another Location

Airport or City:

Trip Planner

Search our weather history database for the weather conditions in past years. The results will help you decide how hot, cold, wet, or windy it might be!

Date:

Astronomy

Oct. 20, 2011 Rise Set
Actual Time 7:31 AM CDT 6:54 PM CDT
Civil Twilight 7:08 AM CDT 7:18 PM CDT
Nautical Twilight 6:40 AM CDT 7:46 PM CDT
Astronomical Twilight 6:13 AM CDT 8:13 PM CDT
Moon 12:54 AM CDT (10/20) 2:31 PM CDT (10/20)
Length of Visible Light 12h 10m
Length of Day
11h 22m
Last Quarter, 44% of the Moon is Illuminated
Oct 20
Last Quarter
Oct 26
New
Nov 2
First Quarter
Nov 10
Full
Nov 18
Last Quarter

Hourly Weather History & Observations

Time (CDT) Temp. Dew Point Humidity Pressure Visibility Wind Dir Wind Speed Gust Speed Precip Events Conditions
12:15 AM 57.0 °F 41.5 °F 56% 30.09 in 10.0 mi SSW 3.5 mph - N/A   Clear
12:35 AM 59.2 °F 42.8 °F 55% 30.09 in 10.0 mi SW 4.6 mph - N/A   Clear
12:55 AM 62.6 °F 45.0 °F 52% 30.09 in 10.0 mi SW 5.8 mph - N/A   Clear
1:15 AM 59.2 °F 44.2 °F 58% 30.09 in 10.0 mi Calm Calm - N/A   Clear
1:35 AM 57.9 °F 44.8 °F 62% 30.09 in 10.0 mi Calm Calm - N/A   Clear
1:55 AM 59.2 °F 45.0 °F 59% 30.09 in 10.0 mi South 4.6 mph - N/A   Clear
2:15 AM 58.8 °F 45.3 °F 61% 30.08 in 10.0 mi Calm Calm - N/A   Clear
2:35 AM 57.7 °F 45.5 °F 64% 30.08 in 10.0 mi Calm Calm - N/A   Clear
3:15 AM 58.6 °F 46.8 °F 65% 30.07 in 10.0 mi Calm Calm - N/A   Clear
3:35 AM 56.1 °F 45.9 °F 68% 30.07 in 10.0 mi Calm Calm - N/A   Clear
3:55 AM 59.0 °F 47.7 °F 66% 30.07 in 10.0 mi Calm Calm - N/A   Clear
4:15 AM 59.5 °F 47.1 °F 63% 30.06 in 10.0 mi Calm Calm - N/A   Clear
4:35 AM 55.6 °F 46.0 °F 70% 30.06 in 10.0 mi Calm Calm - N/A   Clear
4:55 AM 55.6 °F 46.0 °F 70% 30.08 in 10.0 mi North 8.1 mph - N/A   Clear
5:15 AM 55.8 °F 46.4 °F 71% 30.08 in 10.0 mi North 4.6 mph - N/A   Clear
5:35 AM 54.5 °F 46.0 °F 73% 30.09 in 10.0 mi North 4.6 mph - N/A   Clear
5:55 AM 55.2 °F 45.5 °F 70% 30.09 in 10.0 mi North 3.5 mph - N/A   Clear
6:15 AM 53.4 °F 43.7 °F 70% 30.09 in 10.0 mi NNW 5.8 mph - N/A   Clear
6:35 AM 51.4 °F 41.4 °F 68% 30.09 in 10.0 mi North 4.6 mph - N/A   Clear
6:55 AM 50.9 °F 39.2 °F 64% 30.09 in 10.0 mi North 5.8 mph - N/A   Clear
7:35 AM 51.1 °F 40.1 °F 66% 30.10 in 10.0 mi North 4.6 mph - N/A   Clear
7:55 AM 50.7 °F 40.3 °F 67% 30.10 in 10.0 mi North 4.6 mph - N/A   Clear
8:15 AM 52.0 °F 42.6 °F 70% 30.11 in 10.0 mi North 3.5 mph - N/A   Clear
8:35 AM 55.4 °F 46.4 °F 72% 30.12 in 10.0 mi Calm Calm - N/A   Clear
8:55 AM 60.1 °F 50.9 °F 72% 30.12 in 10.0 mi Calm Calm - N/A   Clear
9:15 AM 65.7 °F 53.6 °F 65% 30.13 in 10.0 mi ENE 5.8 mph - N/A   Clear
9:35 AM 69.8 °F 55.2 °F 60% 30.13 in 10.0 mi ENE 4.6 mph - N/A   Clear
9:55 AM 73.4 °F 53.4 °F 49% 30.14 in 10.0 mi East 4.6 mph - N/A   Clear
10:15 AM 75.6 °F 51.1 °F 42% 30.14 in 10.0 mi ENE 4.6 mph - N/A   Clear
10:35 AM 77.2 °F 49.5 °F 38% 30.14 in 10.0 mi East 4.6 mph - N/A   Clear
10:55 AM 78.3 °F 48.2 °F 35% 30.14 in 10.0 mi SE 3.5 mph - N/A   Clear
11:15 AM 78.8 °F 47.5 °F 33% 30.13 in 10.0 mi ESE 8.1 mph - N/A   Clear
11:55 AM 80.1 °F 47.3 °F 32% 30.12 in 10.0 mi SE 6.9 mph - N/A   Clear
12:15 PM 80.2 °F 48.2 °F 32% 30.12 in 10.0 mi East 4.6 mph - N/A   Clear
12:35 PM 80.8 °F 46.9 °F 30% 30.11 in 10.0 mi SSE 5.8 mph - N/A   Clear
1:35 PM 81.5 °F 47.3 °F 30% 30.09 in 10.0 mi SSE 6.9 mph - N/A   Clear
1:55 PM 81.9 °F 47.1 °F 30% 30.07 in 10.0 mi SE 11.5 mph 18.4 mph N/A   Clear
2:15 PM 82.4 °F 47.5 °F 29% 30.06 in 10.0 mi South 9.2 mph 19.6 mph N/A   Clear
2:35 PM 82.8 °F 46.8 °F 28% 30.06 in 10.0 mi SSE 11.5 mph 20.7 mph N/A   Clear
2:55 PM 82.2 °F 46.0 °F 28% 30.05 in 10.0 mi SSE 13.8 mph 19.6 mph N/A   Clear
3:15 PM 82.4 °F 45.9 °F 28% 30.04 in 10.0 mi South 13.8 mph 21.9 mph N/A   Clear
3:35 PM 82.4 °F 46.4 °F 28% 30.03 in 10.0 mi SSE 11.5 mph 23.0 mph N/A   Clear
3:55 PM 82.4 °F 47.1 °F 29% 30.02 in 10.0 mi South 11.5 mph 20.7 mph N/A   Clear
4:15 PM 81.9 °F 47.1 °F 30% 30.02 in 10.0 mi SSE 11.5 mph 20.7 mph N/A   Clear
4:35 PM 81.5 °F 46.4 °F 29% 30.02 in 10.0 mi SSE 15.0 mph 21.9 mph N/A   Clear
5:15 PM 81.1 °F 45.5 °F 28% 30.01 in 10.0 mi SSE 16.1 mph 20.7 mph N/A   Clear
5:35 PM 80.8 °F 45.9 °F 29% 30.01 in 10.0 mi SSE 15.0 mph 21.9 mph N/A   Clear
5:55 PM 80.1 °F 48.4 °F 33% 30.01 in 10.0 mi SSE 15.0 mph 18.4 mph N/A   Clear
6:35 PM 78.1 °F 52.0 °F 40% 30.01 in 10.0 mi SSE 9.2 mph - N/A   Clear
7:15 PM 75.2 °F 55.2 °F 50% 30.01 in 10.0 mi SSE 6.9 mph - N/A   Clear
7:55 PM 74.7 °F 55.4 °F 51% 30.02 in 10.0 mi SSE 8.1 mph - N/A   Clear
8:15 PM 75.2 °F 55.9 °F 51% 30.02 in 10.0 mi SSE 8.1 mph - N/A   Clear
8:35 PM 75.2 °F 57.4 °F 54% 30.02 in 10.0 mi SSE 9.2 mph - N/A   Clear
8:55 PM 75.7 °F 57.0 °F 52% 30.03 in 10.0 mi SSE 9.2 mph 16.1 mph N/A   Clear
9:15 PM 75.7 °F 57.4 °F 53% 30.03 in 10.0 mi South 11.5 mph 16.1 mph N/A   Clear
9:35 PM 75.9 °F 58.3 °F 54% 30.04 in 10.0 mi South 8.1 mph 16.1 mph N/A   Clear
9:55 PM 75.7 °F 59.0 °F 56% 30.04 in 10.0 mi South 11.5 mph - N/A   Clear
10:15 PM 75.9 °F 59.2 °F 56% 30.05 in 10.0 mi South 10.4 mph 16.1 mph N/A   Clear
10:35 PM 76.1 °F 59.5 °F 56% 30.05 in 10.0 mi South 9.2 mph 16.1 mph N/A   Clear
10:55 PM 75.7 °F 59.9 °F 58% 30.06 in 10.0 mi South 8.1 mph - N/A   Clear
11:15 PM 75.4 °F 60.6 °F 60% 30.05 in 10.0 mi South 8.1 mph - N/A   Clear
11:35 PM 75.4 °F 60.8 °F 60% 30.06 in 10.0 mi South 9.2 mph - N/A   Clear